Location: Sedan
(39.2354°N, 78.5718°W)
Time: 02:26:45
(UTC+00:00)

Hubble Space Telescope - Visible Passes

Search period start: 09 December 2021 00:00
Search period end: 19 December 2021 00:00
Orbit: 534 x 538 km, 28.5° (Epoch: 08 December)

Date Brightness Start Highest point End Pass type
(mag) Time Alt. Az. Time Alt. Az. Time Alt. Az.
16 Dec 3.3 23:02:39 10° S 23:03:34 11° SSE 23:04:29 10° SSE visible
17 Dec 3.7 00:41:11 10° SW 00:41:39 12° SSW 00:41:39 12° SSW visible
17 Dec 3.2 22:50:33 10° S 22:52:16 12° SSE 22:53:58 10° SE visible
18 Dec 3.3 00:29:51 10° SW 00:31:08 15° SSW 00:31:08 15° SSW visible
18 Dec 3.2 22:38:49 10° SSW 22:40:58 14° SSE 22:43:07 10° SE visible
